METAR Formatted Surface Weather Observation
Issued by NWS

Home | Current Version | Previous Version | Text Only | Print | Product List | Glossary On
Versions: 1 2 3 4 5 6 7 8 9 10 11 12 13 14 15 16 17 18 19 20 21 22 23 24 25 26 27 28
270
SAUS45 KSLC 200230
MTRU16
METAR KU16 200158Z AUTO 34004KT 10SM CLR 14/M12 A2974
RMK AO2 SLP707 T01391117 $



USA.gov is the U.S. government's official web portal to all federal, state and local government web resources and services.